Time,TemperatureF,DewpointF,PressureIn,WindDirection,WindDirectionDegrees,WindSpeedMPH,WindSpeedGustMPH,Humidity,HourlyPrecipIn,Conditions,Clouds,dailyrainin,SoftwareType,DateUTC
2013-01-01 00:02:00,41.0,39.0,30.41,SSW,204,0.0,0.0,92,0.00,,,-99.99,,2013-01-01 08:02:00,
2013-01-01 00:32:00,41.0,39.0,30.41,South,187,0.0,0.0,92,0.00,,,0.00,,2013-01-01 08:32:00,
2013-01-01 00:42:00,41.0,39.0,30.41,South,187,0.0,0.0,92,0.00,,,0.00,,2013-01-01 08:42:00,
2013-01-01 00:53:00,41.0,39.0,30.41,South,187,0.0,0.0,92,0.00,,,0.00,,2013-01-01 08:53:00,
2013-01-01 01:02:00,41.0,39.0,30.41,South,187,0.0,0.0,92,0.00,,,0.00,,2013-01-01 09:02:00,
2013-01-01 01:32:00,39.0,37.0,30.40,South,187,0.0,2.0,92,0.00,,,0.00,,2013-01-01 09:32:00,
2013-01-01 01:42:00,39.0,37.0,30.40,South,187,0.0,2.0,92,0.00,,,0.00,,2013-01-01 09:42:00,
2013-01-01 01:52:00,39.0,37.0,30.40,South,187,0.0,2.0,92,0.00,,,0.00,,2013-01-01 09:52:00,
2013-01-01 02:02:00,39.0,37.0,30.40,South,187,0.0,2.0,92,0.00,,,0.00,,2013-01-01 10:02:00,
2013-01-01 02:33:00,37.0,35.0,30.41,South,187,1.0,2.0,91,0.00,,,0.00,,2013-01-01 10:33:00,
2013-01-01 02:43:00,37.0,35.0,30.41,South,187,1.0,2.0,91,0.00,,,0.00,,2013-01-01 10:43:00,
2013-01-01 02:52:00,37.0,35.0,30.41,South,187,1.0,2.0,91,0.00,,,0.00,,2013-01-01 10:52:00,
2013-01-01 03:02:00,37.0,35.0,30.41,South,187,1.0,2.0,91,0.00,,,0.00,,2013-01-01 11:02:00,
2013-01-01 03:33:00,36.0,34.0,30.42,SSW,196,2.0,2.0,91,0.00,,,0.00,,2013-01-01 11:33:00,
2013-01-01 03:43:00,36.0,34.0,30.42,SSW,196,2.0,2.0,91,0.00,,,0.00,,2013-01-01 11:43:00,
2013-01-01 03:53:00,36.0,34.0,30.42,SSW,196,2.0,2.0,91,0.00,,,0.00,,2013-01-01 11:53:00,
2013-01-01 04:02:00,36.0,34.0,30.42,SSW,196,2.0,2.0,91,0.00,,,0.00,,2013-01-01 12:02:00,
2013-01-01 04:33:00,37.0,35.0,30.39,NW,316,1.0,3.0,93,0.00,,,0.00,,2013-01-01 12:33:00,
2013-01-01 04:43:00,37.0,35.0,30.39,NW,316,1.0,3.0,93,0.00,,,0.00,,2013-01-01 12:43:00,
2013-01-01 04:52:00,37.0,35.0,30.39,NW,316,1.0,3.0,93,0.00,,,0.00,,2013-01-01 12:52:00,
2013-01-01 05:02:00,37.0,35.0,30.39,NW,316,1.0,3.0,93,0.00,,,0.00,,2013-01-01 13:02:00,
2013-01-01 05:33:00,36.0,34.0,30.39,NW,316,0.0,3.0,93,0.00,,,0.00,,2013-01-01 13:33:00,
2013-01-01 05:43:00,36.0,34.0,30.39,NW,316,0.0,3.0,93,0.00,,,0.00,,2013-01-01 13:43:00,
2013-01-01 05:52:00,36.0,34.0,30.39,NW,316,0.0,3.0,93,0.00,,,0.00,,2013-01-01 13:52:00,
2013-01-01 06:02:00,36.0,34.0,30.39,NW,316,0.0,3.0,93,0.00,,,0.00,,2013-01-01 14:02:00,
2013-01-01 06:33:00,35.0,33.0,30.40,NW,316,0.0,2.0,92,0.00,,,0.00,,2013-01-01 14:33:00,
2013-01-01 06:43:00,35.0,33.0,30.40,NW,316,0.0,2.0,92,0.00,,,0.00,,2013-01-01 14:43:00,
2013-01-01 06:53:00,35.0,33.0,30.40,NW,316,0.0,2.0,92,0.00,,,0.00,,2013-01-01 14:53:00,
2013-01-01 07:02:00,35.0,33.0,30.40,NW,316,0.0,2.0,92,0.00,,,0.00,,2013-01-01 15:02:00,
2013-01-01 07:33:00,34.0,32.0,30.40,NW,316,0.0,1.0,92,0.00,,,0.00,,2013-01-01 15:33:00,
2013-01-01 07:43:00,34.0,32.0,30.40,NW,316,0.0,1.0,92,0.00,,,0.00,,2013-01-01 15:43:00,
2013-01-01 07:53:00,34.0,32.0,30.40,NW,316,0.0,1.0,92,0.00,,,0.00,,2013-01-01 15:53:00,
2013-01-01 08:02:00,34.0,32.0,30.40,NW,316,0.0,1.0,92,0.00,,,0.00,,2013-01-01 16:02:00,
2013-01-01 08:33:00,33.0,31.0,30.40,NW,316,0.0,0.0,92,0.00,,,0.00,,2013-01-01 16:33:00,
2013-01-01 08:43:00,33.0,31.0,30.40,NW,316,0.0,0.0,92,0.00,,,0.00,,2013-01-01 16:43:00,
2013-01-01 08:53:00,33.0,31.0,30.40,NW,316,0.0,0.0,92,0.00,,,0.00,,2013-01-01 16:53:00,
2013-01-01 09:02:00,33.0,31.0,30.40,NW,316,0.0,0.0,92,0.00,,,0.00,,2013-01-01 17:02:00,
2013-01-01 09:33:00,35.0,33.0,30.41,NW,316,0.0,1.0,92,0.00,,,0.00,,2013-01-01 17:33:00,
2013-01-01 09:43:00,35.0,33.0,30.41,NW,316,0.0,1.0,92,0.00,,,0.00,,2013-01-01 17:43:00,
2013-01-01 09:53:00,35.0,33.0,30.41,NW,316,0.0,1.0,92,0.00,,,0.00,,2013-01-01 17:53:00,
2013-01-01 10:02:00,35.0,33.0,30.41,NW,316,0.0,1.0,92,0.00,,,0.00,,2013-01-01 18:02:00,
2013-01-01 10:33:00,41.0,38.0,30.42,NW,315,0.0,2.0,89,0.00,,,0.00,,2013-01-01 18:33:00,
2013-01-01 10:43:00,41.0,38.0,30.42,NW,315,0.0,2.0,89,0.00,,,0.00,,2013-01-01 18:43:00,
2013-01-01 10:53:00,41.0,38.0,30.42,NW,315,0.0,2.0,89,0.00,,,0.00,,2013-01-01 18:53:00,
2013-01-01 11:02:00,41.0,38.0,30.42,NW,315,0.0,2.0,89,0.00,,,0.00,,2013-01-01 19:02:00,
2013-01-01 11:22:00,48.0,42.0,30.41,NW,314,0.0,2.0,80,0.00,,,0.00,,2013-01-01 19:22:00,
2013-01-01 12:02:00,48.0,42.0,30.41,NW,314,0.0,2.0,80,0.00,,,0.00,,2013-01-01 20:02:00,
2013-01-01 12:32:00,52.0,45.0,30.38,NW,317,0.0,2.0,78,0.00,,,0.00,,2013-01-01 20:32:00,
2013-01-01 13:02:00,52.0,45.0,30.38,NW,317,0.0,2.0,78,0.00,,,0.00,,2013-01-01 21:02:00,
2013-01-01 13:13:00,53.0,45.0,30.37,ENE,70,2.0,3.0,73,0.00,,,0.00,,2013-01-01 21:13:00,
2013-01-01 13:22:00,53.0,45.0,30.37,ENE,70,2.0,3.0,73,0.00,,,0.00,,2013-01-01 21:22:00,
2013-01-01 13:33:00,53.0,45.0,30.37,ENE,70,2.0,3.0,73,0.00,,,0.00,,2013-01-01 21:33:00,
2013-01-01 13:42:00,53.0,45.0,30.37,ENE,70,2.0,3.0,73,0.00,,,0.00,,2013-01-01 21:42:00,
2013-01-01 13:52:00,53.0,45.0,30.37,ENE,70,2.0,3.0,73,0.00,,,0.00,,2013-01-01 21:52:00,
2013-01-01 14:02:00,53.0,45.0,30.37,ENE,70,2.0,3.0,73,0.00,,,0.00,,2013-01-01 22:02:00,
2013-01-01 14:33:00,53.0,44.0,30.35,East,83,0.0,3.0,72,0.00,,,0.00,,2013-01-01 22:33:00,
2013-01-01 14:43:00,53.0,44.0,30.35,East,83,0.0,3.0,72,0.00,,,0.00,,2013-01-01 22:43:00,
2013-01-01 14:52:00,53.0,44.0,30.35,East,83,0.0,3.0,72,0.00,,,0.00,,2013-01-01 22:52:00,
2013-01-01 15:02:00,53.0,44.0,30.35,East,83,0.0,3.0,72,0.00,,,0.00,,2013-01-01 23:02:00,
2013-01-01 15:33:00,53.0,43.0,30.35,East,82,0.0,0.0,70,0.00,,,0.00,,2013-01-01 23:33:00,
2013-01-01 15:42:00,53.0,43.0,30.35,East,82,0.0,0.0,70,0.00,,,0.00,,2013-01-01 23:42:00,
2013-01-01 15:52:00,53.0,43.0,30.35,East,82,0.0,0.0,70,0.00,,,0.00,,2013-01-01 23:52:00,
2013-01-01 16:02:00,53.0,43.0,30.35,East,82,0.0,0.0,70,0.00,,,0.00,,2013-01-02 00:02:00,
2013-01-01 16:22:00,50.0,43.0,30.34,East,83,2.0,3.0,76,0.00,,,0.00,,2013-01-02 00:22:00,
2013-01-01 16:32:00,50.0,43.0,30.34,East,83,2.0,3.0,76,0.00,,,0.00,,2013-01-02 00:32:00,
2013-01-01 16:43:00,50.0,43.0,30.34,East,83,2.0,3.0,76,0.00,,,0.00,,2013-01-02 00:43:00,
2013-01-01 16:52:00,50.0,43.0,30.34,East,83,2.0,3.0,76,0.00,,,0.00,,2013-01-02 00:52:00,
2013-01-01 17:02:00,50.0,43.0,30.34,East,83,2.0,3.0,76,0.00,,,0.00,,2013-01-02 01:02:00,
2013-01-01 17:32:00,47.0,41.0,30.34,East,83,0.0,0.0,81,0.00,,,0.00,,2013-01-02 01:32:00,
2013-01-01 17:42:00,47.0,41.0,30.34,East,83,0.0,0.0,81,0.00,,,0.00,,2013-01-02 01:42:00,
2013-01-01 17:52:00,47.0,41.0,30.34,East,83,0.0,0.0,81,0.00,,,0.00,,2013-01-02 01:52:00,
2013-01-01 18:02:00,47.0,41.0,30.34,East,83,0.0,0.0,81,0.00,,,0.00,,2013-01-02 02:02:00,
2013-01-01 18:32:00,44.0,40.0,30.33,East,86,0.0,0.0,87,0.01,,,0.01,,2013-01-02 02:32:00,
2013-01-01 18:42:00,44.0,40.0,30.33,East,86,0.0,0.0,87,0.01,,,0.01,,2013-01-02 02:42:00,
2013-01-01 18:53:00,44.0,40.0,30.33,East,86,0.0,0.0,87,0.01,,,0.01,,2013-01-02 02:53:00,
2013-01-01 19:02:00,44.0,40.0,30.33,East,86,0.0,0.0,87,0.01,,,0.01,,2013-01-02 03:02:00,
2013-01-01 19:32:00,41.0,37.0,30.32,East,86,0.0,0.0,87,0.00,,,0.01,,2013-01-02 03:32:00,
2013-01-01 19:42:00,41.0,37.0,30.32,East,86,0.0,0.0,87,0.00,,,0.01,,2013-01-02 03:42:00,
2013-01-01 19:52:00,41.0,37.0,30.32,East,86,0.0,0.0,87,0.00,,,0.01,,2013-01-02 03:52:00,
2013-01-01 20:02:00,41.0,37.0,30.32,East,86,0.0,0.0,87,0.00,,,0.01,,2013-01-02 04:02:00,
2013-01-01 20:32:00,39.0,35.0,30.32,East,86,0.0,0.0,87,0.00,,,0.01,,2013-01-02 04:32:00,
2013-01-01 20:42:00,39.0,35.0,30.32,East,86,0.0,0.0,87,0.00,,,0.01,,2013-01-02 04:42:00,
2013-01-01 20:52:00,39.0,35.0,30.32,East,86,0.0,0.0,87,0.00,,,0.01,,2013-01-02 04:52:00,
2013-01-01 21:02:00,39.0,35.0,30.32,East,86,0.0,0.0,87,0.00,,,0.01,,2013-01-02 05:02:00,
2013-01-01 21:33:00,37.0,34.0,30.31,East,87,0.0,0.0,88,0.00,,,0.01,,2013-01-02 05:33:00,
2013-01-01 21:42:00,37.0,34.0,30.31,East,87,0.0,0.0,88,0.00,,,0.01,,2013-01-02 05:42:00,
2013-01-01 21:53:00,37.0,34.0,30.31,East,87,0.0,0.0,88,0.00,,,0.01,,2013-01-02 05:53:00,
2013-01-01 22:02:00,37.0,34.0,30.31,East,87,0.0,0.0,88,0.00,,,0.01,,2013-01-02 06:02:00,
2013-01-01 22:32:00,36.0,33.0,30.30,East,86,0.0,0.0,88,0.00,,,0.01,,2013-01-02 06:32:00,
2013-01-01 22:42:00,36.0,33.0,30.30,East,86,0.0,0.0,88,0.00,,,0.01,,2013-01-02 06:42:00,
2013-01-01 22:52:00,36.0,33.0,30.30,East,86,0.0,0.0,88,0.00,,,0.01,,2013-01-02 06:52:00,
2013-01-01 23:02:00,36.0,33.0,30.30,East,86,0.0,0.0,88,0.00,,,0.01,,2013-01-02 07:02:00,
2013-01-01 23:32:00,34.0,31.0,30.30,East,86,0.0,0.0,88,0.00,,,0.01,,2013-01-02 07:32:00,
2013-01-01 23:42:00,34.0,31.0,30.30,East,86,0.0,0.0,88,0.00,,,0.01,,2013-01-02 07:42:00,
2013-01-01 23:52:00,34.0,31.0,30.30,East,86,0.0,0.0,88,0.00,,,0.01,,2013-01-02 07:52:00,